Coolangatta, Australia

8:02 PM AEST on September 20, 2017 (GMT +1000)
Coolangatta

Weather History for YBCG - April, 2013

Change the Weather History Date:

Thursday, April 11, 2013

  Actual Average Record
Temperature  
Mean Temperature 68 °F -  
Max Temperature 77 °F - - ()
Min Temperature 60 °F - - ()
Cooling Degree Days 4    
Growing Degree Days 18 (Base 50)    
Moisture  
Dew Point 60 °F    
Average Humidity 71    
Maximum Humidity 94    
Minimum Humidity 44    
Precipitation  
Precipitation 0.00 in - - ()
Sea Level Pressure  
Sea Level Pressure 30.15 in    
Wind  
Wind Speed 10 mph ()    
Max Wind Speed 17 mph    
Max Gust Speed -    
Visibility 6.1 miles    
Events      
T = Trace of Precipitation, MM = Missing Value Source: Averaged Metar Reports

Daily Weather History Graph

Daily Weather History Graph

Search for Another Location

Airport or City:

Trip Planner

Search our weather history database for the weather conditions in past years. The results will help you decide how hot, cold, wet, or windy it might be!

Date:

Astronomy

Apr. 11, 2013 Rise Set
Actual Time 6:01 AM AEST 5:32 PM AEST
Civil Twilight 5:37 AM AEST 5:56 PM AEST
Nautical Twilight 5:10 AM AEST 6:23 PM AEST
Astronomical Twilight 4:42 AM AEST 6:50 PM AEST
Moon 6:30 AM AEST (4/11) 5:55 PM AEST (4/11)
Length of Visible Light 12h 18m
Length of Day
11h 31m
New Moon, 0% of the Moon is Illuminated
Apr 11
New Moon
Apr 18
First Quarter
Apr 26
Full
May 2
Last Quarter
May 10
New

Hourly Weather History & Observations

Time (AEST) Temp. Dew Point Humidity Pressure Visibility Wind Dir Wind Speed Gust Speed Precip Events Conditions
12:00 AM 64 °F 61 °F 86% 30.17 in 2 mi SSE 10.4 mph - -  
12:00 AM 64.4 °F 60.8 °F 88% 30.15 in - SSE 10.4 mph - N/A   Mostly Cloudy
12:30 AM 64.4 °F 60.8 °F 88% 30.15 in 6.2 mi SW 9.2 mph - N/A   Overcast
1:00 AM 62.6 °F 60.8 °F 94% 30.15 in 6.2 mi WSW 6.9 mph - N/A   Scattered Clouds
1:30 AM 62.6 °F 60.8 °F 94% 30.12 in 6.2 mi SSW 8.1 mph - N/A   Scattered Clouds
2:00 AM 62.6 °F 60.8 °F 94% 30.12 in 6.2 mi South 6.9 mph - N/A   Mostly Cloudy
2:30 AM 64.4 °F 59.0 °F 83% 30.12 in 6.2 mi South 6.9 mph - N/A   Mostly Cloudy
3:00 AM 63 °F 60 °F 86% 30.13 in - SSE 8.1 mph - -   Overcast
3:00 AM 62.6 °F 60.8 °F 94% 30.12 in 6.2 mi SSE 8.1 mph - N/A   Mostly Cloudy
3:30 AM 64.4 °F 60.8 °F 88% 30.12 in 6.2 mi SSE 5.8 mph - N/A   Overcast
4:00 AM 62.6 °F 59.0 °F 88% 30.12 in 6.2 mi South 4.6 mph - N/A   Mostly Cloudy
4:30 AM 62.6 °F 59.0 °F 88% 30.12 in 6.2 mi South 4.6 mph - N/A   Unknown
5:00 AM 60.8 °F 59.0 °F 94% 30.12 in 6.2 mi South 5.8 mph - N/A   Unknown
5:30 AM 62.6 °F 59.0 °F 88% 30.12 in 6.2 mi SSW 8.1 mph - N/A   Scattered Clouds
6:00 AM 63 °F 59 °F 84% 30.14 in - South 5.8 mph - -  
6:00 AM 62.6 °F 59.0 °F 88% 30.12 in 6.2 mi South 5.8 mph - N/A   Scattered Clouds
6:30 AM 64.4 °F 59.0 °F 83% 30.12 in 6.2 mi South 8.1 mph - N/A   Scattered Clouds
7:00 AM 64.4 °F 59.0 °F 83% 30.12 in 6.2 mi SSW 6.9 mph - N/A   Unknown
7:30 AM 66.2 °F 60.8 °F 83% 30.15 in 6.2 mi South 9.2 mph - N/A   Unknown
8:00 AM 68.0 °F 60.8 °F 78% 30.15 in 6.2 mi South 9.2 mph - N/A   Unknown
8:30 AM 69.8 °F 60.8 °F 73% 30.18 in 6.2 mi South 9.2 mph - N/A   Unknown
9:00 AM 70 °F 61 °F 66% 30.18 in - South 13.8 mph - -  
9:00 AM 69.8 °F 60.8 °F 73% 30.15 in 6.2 mi South 13.8 mph - N/A   Unknown
9:30 AM 71.6 °F 62.6 °F 73% 30.15 in 6.2 mi South 10.4 mph - N/A   Unknown
10:00 AM 73.4 °F 62.6 °F 69% 30.15 in 6.2 mi South 10.4 mph - N/A   Unknown
10:30 AM 75.2 °F 60.8 °F 61% 30.15 in 6.2 mi SSE 16.1 mph - N/A   Scattered Clouds
11:00 AM 75.2 °F 60.8 °F 61% 30.15 in 6.2 mi SSE 16.1 mph - N/A   Scattered Clouds
11:30 AM 75.2 °F 62.6 °F 65% 30.15 in 6.2 mi SSE 16.1 mph - N/A   Scattered Clouds
12:00 PM 75 °F 61 °F 53% 30.16 in - SSE 16.1 mph - -   Overcast
12:00 PM 75.2 °F 60.8 °F 61% 30.15 in 6.2 mi SSE 16.1 mph - N/A   Mostly Cloudy
12:30 PM 77.0 °F 60.8 °F 57% 30.15 in 6.2 mi ESE 16.1 mph - N/A   Scattered Clouds
1:00 PM 77.0 °F 59.0 °F 54% 30.15 in 6.2 mi SE 15.0 mph - N/A   Unknown
1:30 PM 77.0 °F 59.0 °F 54% 30.12 in 6.2 mi SE 15.0 mph - N/A   Scattered Clouds
2:00 PM 77.0 °F 60.8 °F 57% 30.12 in 6.2 mi ESE 15.0 mph - N/A   Scattered Clouds
2:30 PM 77.0 °F 60.8 °F 57% 30.12 in 6.2 mi SE 17.3 mph - N/A   Scattered Clouds
3:00 PM 75 °F 57 °F 44% 30.14 in - SE 16.1 mph - -  
3:00 PM 75.2 °F 57.2 °F 53% 30.12 in 6.2 mi SE 16.1 mph - N/A   Unknown
3:30 PM 75.2 °F 60.8 °F 61% 30.12 in 6.2 mi SE 15.0 mph - N/A   Scattered Clouds
4:00 PM 73.4 °F 59.0 °F 61% 30.12 in 6.2 mi SE 17.3 mph - N/A   Scattered Clouds
4:30 PM 73.4 °F 60.8 °F 65% 30.15 in 6.2 mi SE 12.7 mph - N/A   Scattered Clouds
5:00 PM 73.4 °F 59.0 °F 61% 30.12 in 6.2 mi SE 13.8 mph - N/A   Mostly Cloudy
5:30 PM 71.6 °F 59.0 °F 64% 30.15 in 6.2 mi SE 12.7 mph - N/A   Scattered Clouds
6:00 PM 72 °F 60 °F 56% 30.16 in - SE 16.1 mph - -  
6:00 PM 71.6 °F 59.0 °F 64% 30.15 in 6.2 mi SE 16.1 mph - N/A   Scattered Clouds
6:30 PM 71.6 °F 59.0 °F 64% 30.15 in 6.2 mi SE 13.8 mph - N/A   Scattered Clouds
7:00 PM 71.6 °F 59.0 °F 64% 30.18 in 6.2 mi SE 12.7 mph - N/A   Scattered Clouds
7:30 PM 71.6 °F 59.0 °F 64% 30.18 in 6.2 mi SE 12.7 mph - N/A   Unknown
8:00 PM 71.6 °F 59.0 °F 64% 30.18 in 6.2 mi SE 12.7 mph - N/A   Scattered Clouds
8:30 PM 71.6 °F 59.0 °F 64% 30.18 in 6.2 mi SE 12.7 mph - N/A   Scattered Clouds
9:00 PM 70 °F 58 °F 57% 30.20 in - SE 10.4 mph - -  
9:00 PM 69.8 °F 57.2 °F 64% 30.18 in 6.2 mi SE 10.4 mph - N/A   Unknown
9:30 PM 69.8 °F 57.2 °F 64% 30.18 in 6.2 mi SE 11.5 mph - N/A   Scattered Clouds
10:00 PM 69.8 °F 59.0 °F 68% 30.18 in 6.2 mi SE 11.5 mph - N/A   Scattered Clouds
10:30 PM 71.6 °F 57.2 °F 60% 30.18 in 6.2 mi SE 12.7 mph - N/A   Scattered Clouds
11:00 PM 71.6 °F 55.4 °F 57% 30.18 in 6.2 mi SE 10.4 mph - N/A   Scattered Clouds
11:30 PM 71.6 °F 59.0 °F 64% 30.15 in 6.2 mi SE 11.5 mph - N/A   Scattered Clouds